Location: Cerezo de Arriba
(41.2389°N, 3.5585°W)
Time: 03:40:15
(UTC+00:00)

SAR-Lupe-2 - Pass Details

Date: 19 May 2025
Orbit: 478 x 487 km, 98.1° (Epoch: 16 May)

Event Time Altitude Azimuth Distance (km) Brightness Sun altitude
Exits shadow 20:57:49 27° 127° (SE) 961 4.4 -14.2°
Maximum altitude 20:59:20 43° 72° (ENE) 688 4.1 -14.4°
Drops below altitude 10° 21:02:43 10° 1° (N) 1,663 6.9 -14.9°
Sets 21:04:51 0° 354° (N) 2,548 8.1 -15.2°
